This is the latest recevied weather packets stored in our database for station/object N9EA. If no packets are shown the sender has not sent any weather packets the latest 10 day(s).
| Time | Temp. | Humidity | Pressure | Rain* | Wind** | Luminosity | Snow |
|---|---|---|---|---|---|---|---|
| 1777596034 | 11.11° C | 64% | 1013.4 hPa | 0 mm | - | 8 W/m² | - |
| 1777595733 | 11.11° C | 64% | 1013.5 hPa | 0 mm | - | 7 W/m² | - |
| 1777595429 | 11.11° C | 64% | 1013.6 hPa | 0 mm | - | 5 W/m² | - |
| 1777595126 | 11.11° C | 64% | 1013.5 hPa | 0 mm | - | 11 W/m² | - |
| 1777594822 | 11.11° C | 64% | 1013.4 hPa | 0 mm | - | 9 W/m² | - |
| 1777594518 | 11.11° C | 65% | 1013.4 hPa | 0 mm | - | 14 W/m² | - |
| 1777594215 | 11.11° C | 65% | 1013.5 hPa | 0 mm | - | 18 W/m² | - |
| 1777593911 | 11.11° C | 65% | 1013.5 hPa | 0 mm | - | 23 W/m² | - |
| 1777593608 | 11.11° C | 66% | 1013.2 hPa | 0 mm | - | 31 W/m² | - |
| 1777593303 | 11.11° C | 66% | 1013.3 hPa | 0 mm | - | 33 W/m² | - |
| 1777592998 | 11.11° C | 67% | 1013.3 hPa | 0 mm | - | 36 W/m² | - |
| 1777592692 | 11.11° C | 66% | 1013.4 hPa | 0 mm | - | 37 W/m² | - |
| 1777592388 | 11.11° C | 66% | 1013.4 hPa | 0 mm | - | 56 W/m² | - |
| 1777592083 | 10.56° C | 66% | 1013.3 hPa | 0 mm | - | 46 W/m² | - |
| 1777591781 | 10.56° C | 66% | 1013.3 hPa | 0 mm | - | 39 W/m² | - |
| 1777591476 | 11.11° C | 66% | 1013.3 hPa | 0 mm | - | 29 W/m² | - |
| 1777591172 | 11.11° C | 66% | 1013.5 hPa | 0 mm | - | 46 W/m² | - |
| 1777590867 | 11.11° C | 66% | 1013.1 hPa | 0 mm | - | 68 W/m² | - |
| 1777590564 | 11.11° C | 67% | 1013.2 hPa | 0 mm | - | 80 W/m² | - |
| 1777590259 | 11.11° C | 68% | 1013.2 hPa | 0 mm | - | 85 W/m² | - |
| 1777589952 | 11.11° C | 68% | 1013.1 hPa | 0 mm | - | 126 W/m² | - |
| 1777589649 | 10.56° C | 69% | 1013.4 hPa | 0 mm | - | 136 W/m² | - |
| 1777589345 | 10.56° C | 70% | 1013.3 hPa | 0 mm | - | 115 W/m² | - |
| 1777589043 | 10.56° C | 70% | 1013.6 hPa | 0 mm | - | 39 W/m² | - |
| 1777588739 | 10.56° C | 70% | 1013.3 hPa | 0 mm | - | 46 W/m² | - |
* Rain latest hour (hover to see other rain measurements)
** Current wind speed in m/s (hover to see current wind gust speed)